Notices

What's New in latest Release from April 7th, 2021:

- Updated Glossary, including Speed of Maximum Gust, and Total Hourly Precipitation

- Updated national and regional climate services offices contacts and prices information

- Addition of station inventory lists for 1981-2010, 1971-2000, and 1961-1990 Normals.

If you haven't already, please take our survey and provide feedback about our website: https://eccc.sondage-survey.ca/f/LanguageSelection.aspx?s=442ca660-fcf1-47c0-95a9-59707d6fd709

Hourly Data Report for August 09, 2018

TORONTO CITY
ONTARIO
Current Station Operator: ECCC - MSC

43°40'00.000" N
79°24'00.000" W
112.50 m
6158355
71508
XTO

Download Data

Hourly Data (August 2018)
Hourly Data Report for August 9, 2018
TIME
LST
Temp Definition
°C
Dew Point Definition
°C
Rel Hum Definition
%
Precip. Amount Definition
mm

Wind Dir Definition
10's deg

Wind Spd Definition
km/h
Visibility Definition
km
Stn Press Definition
kPa
Hmdx Definition


Wind Chill Definition


Weather Definition


00:00 21.5 17.3 77 0.0 LegendMM LegendMM   99.70 27   LegendNANA
01:00 20.0 17.4 85 0.0 LegendMM LegendMM   99.70 26   LegendNANA
02:00 19.4 15.5 78 0.0 LegendMM LegendMM   99.72     LegendNANA
03:00 18.6 14.3 76 0.0 LegendMM LegendMM   99.70     LegendNANA
04:00 17.9 14.3 80 0.0 LegendMM LegendMM   99.67     LegendNANA
05:00 17.8 14.1 79 0.0 LegendMM LegendMM   99.71     LegendNANA
06:00 18.2 13.8 76 0.0 LegendMM LegendMM   99.76     LegendNANA
07:00 19.3 13.8 71 0.0 LegendMM LegendMM   99.81     LegendNANA
08:00 21.6 13.3 59 0.0 LegendMM LegendMM   99.82 25   LegendNANA
09:00 22.9 14.4 59 0.0 LegendMM LegendMM   99.82 27   LegendNANA
10:00 24.6 15.2 56 0.0 LegendMM LegendMM   99.83 29   LegendNANA
11:00 25.9 17.5 60 0.0 LegendMM LegendMM   99.82 32   LegendNANA
12:00 26.9 18.7 61 0.0 LegendMM LegendMM   99.77 33   LegendNANA
13:00 27.7 18.7 58 0.0 LegendMM LegendMM   99.73 34   LegendNANA
14:00 28.6 17.2 50 0.0 LegendMM LegendMM   99.69 34   LegendNANA
15:00 29.2 13.3 38 0.0 LegendMM LegendMM   99.67 32   LegendNANA
16:00 28.6 15.7 46 0.0 LegendMM LegendMM   99.64 33   LegendNANA
17:00 28.1 15.9 48 0.0 LegendMM LegendMM   99.63 33   LegendNANA
18:00 28.0 15.5 47 0.0 LegendMM LegendMM   99.65 32   LegendNANA
19:00 26.2 16.2 54 0.0 LegendMM LegendMM   99.69 31   LegendNANA
20:00 25.1 16.9 60 0.0 LegendMM LegendMM   99.72 30   LegendNANA
21:00 23.3 18.0 72 0.0 LegendMM LegendMM   99.82 29   LegendNANA
22:00 22.1 19.2 84 1.1 LegendMM LegendMM   99.84 29   LegendNANA
23:00 22.4 18.5 78 0.0 LegendMM LegendMM   99.86 29   LegendNANA

Notes on Data Quality.

Legend

  • E = Estimated
  • M = Missing
  • NA = Not Available*
  • [empty] = Indicates an unobserved value
Date modified: